Location: Unspecified
(0.0000°N, 0.0000°E)
Time: 18:20:48
(UTC+00:00)

STARLINK 1021 - Pass Details

Date: 18 January 2020
Orbit: 347 x 352 km, 53.0° (Epoch: 17 January)

Event Time Altitude Azimuth Distance (km) Brightness Sun altitude
Exits shadow 04:14:05 - 175° (S) 1,869 6.7 -27.0°
Reaches altitude 10° 04:16:29 10° 142° (SE) 1,300 6.3 -26.4°
Maximum altitude 04:17:20 11° 125° (SE) 1,247 6.4 -26.3°
Drops below altitude 10° 04:18:11 10° 108° (ESE) 1,298 6.5 -26.1°
Sets 04:21:23 0° 68° (ENE) 2,134 7.3 -25.3°
